Regional Weather Roundup
Issued by NWS Goodland, KS

Home | Current Version | Previous Version | Graphics & Text | Print | Product List | Glossary On
Versions: 1 2 3 4 5 6 7 8 9 10 11 12 13 14 15 16 17 18 19 20 21 22 23 24 25 26 27 28 29 30 31 32 33 34 35 36 37 38 39 40 41 42 43 44 45 46 47 48 49 50
986
ASUS43 KGLD 220908
RWRGLD

GOODLAND FORECAST AREA HOURLY WEATHER ROUNDUP
NATIONAL WEATHER SERVICE GOODLAND KS
200 AM MST WED FEB 22 2017

...OFFICIAL OBSERVATIONS...

CITY           SKY/WX    TMP DP  RH WIND       PRES   REMARKS
GOODLAND KS    CLOUDY    56  14  19 W14       29.80F
HILL CITY KS   CLOUDY    56  26  31 SW14      29.75F
IMPERIAL NEB   CLOUDY    47  17  30 W12       29.78S
MCCOOK NEB     PTCLDY    45  25  45 W8        29.73F
AKRON CO       CLOUDY    45  14  28 W12       29.81S
BURLINGTON CO  CLOUDY    49  15  25 SW13      29.85F
LIMON CO       CLOUDY    53  14  21 W14       29.87F
$$

...UNOFFICIAL OBSERVATIONS...

CITY           SKY/WX    TMP DP  RH WIND       PRES   REMARKS
LENORA KS        N/A     52  32  46 SW8         N/A
NORTON KS      CLEAR     50  19  29 SW12      29.72F
SHARON SPRINGS   N/A     50  21  32 W8          N/A
TRENTON NEB      N/A     45  32  60 NW7         N/A
KIT CARSON CO    N/A     48  17  29 MISG        N/A
YUMA CO        FAIR      43  16  33 SW10      29.79S
$$




USA.gov is the U.S. government's official web portal to all federal, state and local government web resources and services.